Location: Central Coast
(33.3208°S, 151.2336°E)
Time: 17:07:38
(UTC+11:00)

Amateur Radio Satellites - All Passes

Search period start: 22 January 2018 16:37
Search period end: 23 January 2018 16:37
Location: Central Coast, 33.3208°S, 151.2336°E

Satellite Date Start Highest point End Downlink Frequencies (MHz)
Time Altitude Azimuth
ITAMSAT 1 22 Jan 16:41:23 16:46:39 73° 78° (ENE) 16:51:51 435.822/435.867
SO-50 22 Jan 17:01:17 17:05:39 35° 68° (ENE) 17:10:00 436.795
ITUPSAT 1 22 Jan 17:15:54 17:16:56 11° 272° (W) 17:17:58 437.325
KKS-1 22 Jan 17:16:22 17:20:41 47° 107° (ESE) 17:25:03 437.445
M-CUBED/EXP-1 PRIME 22 Jan 17:17:54 17:22:06 33° 78° (ENE) 17:26:16 437.505
AO-7 22 Jan 17:25:58 17:33:49 47° 246° (WSW) 17:41:38 .
STARS 22 Jan 17:29:53 17:33:29 24° 110° (ESE) 17:37:07 437.465
CUBESAT XI-V 22 Jan 17:41:18 17:43:11 12° 272° (W) 17:45:04 437.345
LilacSat-2 22 Jan 17:52:07 17:53:43 12° 87° (E) 17:55:18 437.200
XW-2C 22 Jan 17:53:14 17:54:25 11° 87° (E) 17:55:35 145.795 - 145.815
FALCONSAT 3 22 Jan 17:54:41 17:58:23 63° 185° (S) 18:02:05 435.103
DOVE 4 22 Jan 17:56:25 18:01:28 65° 256° (WSW) 18:06:09 437.250
HO-68 22 Jan 18:16:24 18:18:26 11° 89° (E) 18:20:27 435.675
KAITUO 1B 22 Jan 18:23:09 18:25:57 19° 85° (E) 18:28:43 145.475/437.950
CUTE-I 22 Jan 18:23:15 18:27:39 25° 84° (E) 18:32:00 437.470
ITAMSAT 1 22 Jan 18:23:36 18:25:24 12° 243° (WSW) 18:27:12 435.822/435.867
XW-2F 22 Jan 18:26:26 18:29:50 28° 83° (E) 18:33:12 145.980 - 146.000
NUDT-PHONESAT 22 Jan 18:31:43 18:34:46 22° 84° (E) 18:37:47 437.300
XW-2D 22 Jan 18:36:53 18:40:39 45° 81° (E) 18:44:22 145.860 - 145.880
SO-50 22 Jan 18:42:15 18:46:08 24° 233° (SW) 18:50:01 436.795
CUTE 1.7 + AOD 2 22 Jan 18:50:30 18:53:16 16° 86° (E) 18:56:01 437.475
M-CUBED/EXP-1 PRIME 22 Jan 18:52:36 18:56:11 22° 245° (WSW) 18:59:46 437.505
XW-2B 22 Jan 18:54:25 18:58:20 77° 79° (ENE) 19:02:11 145.730 - 145.750
KKS-1 22 Jan 18:55:28 18:57:26 13° 273° (W) 18:59:25 437.445
STARS 22 Jan 19:06:03 19:09:40 24° 277° (W) 19:13:20 437.465
CUBEBUG 2 22 Jan 19:15:03 19:18:00 18° 85° (E) 19:20:55 437.445
UWE-3 22 Jan 19:20:11 19:20:29 10° 88° (E) 19:20:48 435.000/436.395/437.385
LilacSat-2 22 Jan 19:24:26 19:28:04 36° 254° (WSW) 19:31:39 437.200
XW-2C 22 Jan 19:25:03 19:28:42 38° 254° (WSW) 19:32:18 145.795 - 145.815
STRAND 1 22 Jan 19:26:22 19:31:28 61° 106° (ESE) 19:36:37 437.568
FALCONSAT 3 22 Jan 19:33:53 19:37:37 77° 169° (S) 19:41:21 435.103
AAUSAT CUBESAT 2 22 Jan 19:48:44 19:51:39 18° 86° (E) 19:54:34 437.432
KAITUO 1B 22 Jan 19:56:45 19:59:47 22° 251° (WSW) 20:02:47 145.475/437.950
RS-15 22 Jan 19:57:57 20:08:20 53° 70° (ENE) 20:18:48 29.354- 29.394
HO-68 22 Jan 19:59:37 20:06:56 86° 75° (ENE) 20:14:08 435.675
FO-29 22 Jan 20:01:18 20:07:10 59° 108° (ESE) 20:13:56 435.910
XW-2F 22 Jan 20:01:19 20:03:38 15° 249° (WSW) 20:05:57 145.980 - 146.000
CUTE-I 22 Jan 20:02:49 20:07:40 34° 250° (WSW) 20:12:26 437.470
NUDT-PHONESAT 22 Jan 20:05:43 20:08:22 18° 250° (WSW) 20:11:01 437.300
XW-2A 22 Jan 20:06:29 20:09:10 21° 84° (E) 20:11:50 145.665 - 145.685
SEEDS 22 Jan 20:09:48 20:14:08 90° 155° (SSE) 20:18:25 437.485
XW-2D 22 Jan 20:14:06 20:14:19 10° 247° (WSW) 20:14:31 145.860 - 145.880
Oscar 11 22 Jan 20:16:59 20:19:16 14° 87° (E) 20:21:31 .
CUTE 1.7 + AOD 2 22 Jan 20:25:13 20:29:07 33° 253° (WSW) 20:33:00 437.475
BEESAT 3 22 Jan 20:42:14 20:43:38 12° 72° (ENE) 20:45:01 437.485
TIGRISAT 22 Jan 20:47:31 20:49:09 12° 113° (ESE) 20:50:48 435.000
PCSat 22 Jan 20:47:53 20:50:39 14° 77° (ENE) 20:53:26 145.827
CUBEBUG 2 22 Jan 20:51:01 20:54:35 27° 252° (WSW) 20:58:08 437.445
UWE-3 22 Jan 20:53:05 20:57:09 49° 255° (WSW) 21:01:15 435.000/436.395/437.385
UNISAT 6 22 Jan 21:01:25 21:04:39 19° 111° (ESE) 21:07:51 437.425
STRAND 1 22 Jan 21:08:50 21:10:58 12° 272° (W) 21:13:06 437.568
FALCONSAT 3 22 Jan 21:13:09 21:16:35 36° 335° (NNW) 21:20:01 435.103
ZACube-1 22 Jan 21:13:37 21:17:48 59° 256° (WSW) 21:22:00 437.345
AO-73 22 Jan 21:19:32 21:23:43 58° 256° (WSW) 21:27:55 145.935
YUBILEINY 22 Jan 21:20:06 21:25:05 16° 113° (ESE) 21:30:02 435.215
AAUSAT CUBESAT 2 22 Jan 21:23:24 21:27:04 29° 252° (WSW) 21:30:42 437.432
JUGNU 22 Jan 21:30:49 21:33:55 14° 14° (NNE) 21:36:59 437.505
BEESAT 2 22 Jan 21:33:53 21:34:53 11° 72° (ENE) 21:35:53 435.950
XW-2A 22 Jan 21:39:27 21:41:38 16° 251° (WSW) 21:43:48 145.665 - 145.685
DELFI C3 22 Jan 21:47:33 21:50:57 26° 84° (E) 21:54:18 145.870
FO-29 22 Jan 21:48:52 21:52:49 18° 269° (W) 21:57:06 435.910
HO-68 22 Jan 21:49:42 21:53:40 16° 239° (WSW) 21:57:38 435.675
Oscar 11 22 Jan 21:51:23 21:55:31 40° 253° (WSW) 21:59:36 .
Max Valier Satellite 22 Jan 22:09:50 22:13:11 30° 83° (E) 22:16:31 145.860
RS-15 22 Jan 22:10:53 22:20:50 40° 230° (SW) 22:31:04 29.354- 29.394
BEESAT 3 22 Jan 22:17:10 22:20:43 38° 238° (WSW) 22:24:18 437.485
TIGRISAT 22 Jan 22:20:52 22:25:20 54° 280° (W) 22:29:46 435.000
PRISM 22 Jan 22:23:11 22:26:54 32° 108° (ESE) 22:30:40 437.425
EO-88 22 Jan 22:25:22 22:28:41 30° 83° (E) 22:31:58 145.990 - 145.960
PCSat 22 Jan 22:28:06 22:33:27 60° 242° (WSW) 22:38:51 145.827
UNISAT 6 22 Jan 22:37:00 22:41:05 32° 278° (W) 22:45:08 437.425
O/OREOS (USA 219) 22 Jan 22:49:01 22:53:33 49° 112° (ESE) 22:58:00 437.305
BEESAT 2 22 Jan 23:08:27 23:12:08 43° 239° (WSW) 23:15:50 435.950
QB50P2 22 Jan 23:13:10 23:16:00 18° 111° (ESE) 23:18:51 145.880/145.840
YUBILEINY 22 Jan 23:14:01 23:22:57 88° 272° (W) 23:31:50 435.215
JUGNU 22 Jan 23:17:50 23:22:16 21° 4° (N) 23:26:42 437.505
DELFI C3 22 Jan 23:22:39 23:25:26 18° 250° (WSW) 23:28:12 145.870
DUCHIFAT 1 22 Jan 23:39:51 23:43:14 23° 109° (ESE) 23:46:37 145.980
LO-87 22 Jan 23:40:15 23:43:25 29° 82° (E) 23:46:32 145.935 - 145.965
EO-79 22 Jan 23:42:22 23:46:13 34° 107° (ESE) 23:50:07 145.935-145.965
Max Valier Satellite 22 Jan 23:44:47 23:46:40 13° 249° (WSW) 23:48:33 145.860
AO-85 22 Jan 23:46:14 23:51:28 57° 65° (ENE) 23:56:31 145.980
AIST 2D 22 Jan 23:49:06 23:52:24 40° 279° (W) 23:55:47 435.315
PRISM 22 Jan 23:59:36 00:02:11 16° 274° (W) 00:04:48 437.425
EO-88 23 Jan 00:00:09 00:01:58 13° 249° (WSW) 00:03:47 145.990 - 145.960
POLYITAN 1 23 Jan 00:17:17 00:21:33 86° 286° (WNW) 00:25:51 437.675
ESTCUBE 1 23 Jan 00:17:51 00:22:27 72° 79° (E) 00:27:00 437.505/2401.250
AO-91 23 Jan 00:23:49 00:26:49 15° 114° (ESE) 00:29:48 145.960
O/OREOS (USA 219) 23 Jan 00:30:34 00:32:25 12° 278° (W) 00:34:14 437.305
NANOSAT C BR1 23 Jan 00:31:33 00:35:45 66° 282° (WNW) 00:40:01 145.865
RS-15 23 Jan 00:33:52 00:37:44 12° 198° (SSW) 00:41:40 29.354- 29.394
BUGSAT 1 23 Jan 00:35:41 00:38:55 22° 110° (ESE) 00:42:08 437.445
QB50P2 23 Jan 00:47:41 00:51:29 31° 278° (W) 00:55:20 145.880/145.840
Gurwin Techsat 1B 23 Jan 01:05:07 01:09:22 25° 112° (ESE) 01:13:41 435.225
JUGNU 23 Jan 01:06:19 01:10:40 21° 354° (N) 01:15:01 437.505
Oscar 19 23 Jan 01:06:53 01:11:28 34° 110° (ESE) 01:16:06 437.125/150
YUBILEINY 23 Jan 01:14:26 01:18:22 14° 258° (WSW) 01:22:19 435.215
LO-87 23 Jan 01:14:55 01:16:28 12° 249° (WSW) 01:18:00 145.935 - 145.965
DUCHIFAT 1 23 Jan 01:15:23 01:18:44 23° 276° (W) 01:22:07 145.980
EO-79 23 Jan 01:19:28 01:22:02 16° 274° (W) 01:24:36 145.935-145.965
AO-85 23 Jan 01:28:35 01:32:12 18° 231° (SW) 01:35:43 145.980
SRMSAT 23 Jan 01:29:36 01:33:37 19° 9° (N) 01:37:38 437.500
SPROUT 23 Jan 01:32:37 01:36:54 70° 256° (WSW) 01:41:07 437.525
SO-50 23 Jan 01:38:34 01:40:05 11° 134° (SE) 01:41:36 436.795
VELOX 1 23 Jan 01:47:09 01:51:41 85° 80° (E) 01:56:08 145.980
AO-91 23 Jan 01:57:18 02:02:39 63° 281° (W) 02:08:01 145.960
DX 1 23 Jan 01:59:36 02:02:41 18° 85° (E) 02:05:44 434.975-435.025
BUGSAT 1 23 Jan 02:10:40 02:14:05 24° 277° (W) 02:17:30 437.445
50 SAT 23 Jan 02:11:33 02:13:46 18° 84° (E) 02:15:56 437.505
AO-7 23 Jan 02:28:24 02:35:33 33° 118° (ESE) 02:42:42 .
Gurwin Techsat 1B 23 Jan 02:44:16 02:49:05 34° 278° (W) 02:53:57 435.225
Oscar 19 23 Jan 02:46:45 02:50:46 23° 276° (W) 02:54:50 437.125/150
RS-15 23 Jan 02:52:53 02:57:53 13° 158° (SSE) 03:02:57 29.354- 29.394
JUGNU 23 Jan 02:56:22 02:59:01 13° 345° (NNW) 03:01:39 437.505
SO-50 23 Jan 03:16:31 03:21:05 76° 297° (WNW) 03:25:32 436.795
SRMSAT 23 Jan 03:17:42 03:22:09 22° 359° (N) 03:26:36 437.500
UKube-1 23 Jan 03:19:12 03:23:37 83° 258° (WSW) 03:27:55 .
DX 1 23 Jan 03:34:57 03:38:51 31° 251° (WSW) 03:42:42 434.975-435.025
ITUPSAT 1 23 Jan 03:39:27 03:43:10 22° 84° (E) 03:46:50 437.325
NO-84 23 Jan 03:40:34 03:43:13 18° 59° (ENE) 03:46:01 435.350 FM
50 SAT 23 Jan 03:43:27 03:45:15 14° 251° (WSW) 03:47:01 437.505
MOZHAYETS 4 23 Jan 03:54:17 03:58:54 65° 79° (E) 04:03:28
ITAMSAT 1 23 Jan 03:54:55 04:00:09 74° 105° (ESE) 04:05:26 435.822/435.867
M-CUBED/EXP-1 PRIME 23 Jan 04:00:46 04:03:03 16° 117° (ESE) 04:05:26 437.505
CUBESAT XI-V 23 Jan 04:02:42 04:05:56 18° 86° (E) 04:09:08 437.345
BEESAT 23 Jan 04:17:09 04:21:55 60° 79° (E) 04:26:38 436.000
AO-7 23 Jan 04:19:59 04:27:56 49° 282° (WNW) 04:35:57 .
DOVE 4 23 Jan 04:56:08 05:01:14 78° 105° (ESE) 05:06:35 437.250
RS-15 23 Jan 05:03:35 05:14:31 44° 128° (SE) 05:25:49 29.354- 29.394
SRMSAT 23 Jan 05:07:00 05:10:41 17° 349° (N) 05:14:21 437.500
KKS-1 23 Jan 05:13:23 05:15:18 12° 87° (E) 05:17:11 437.445
XW-2D 23 Jan 05:15:38 05:17:16 12° 112° (ESE) 05:18:55 145.860 - 145.880
NO-84 23 Jan 05:16:32 05:20:11 38° 223° (SW) 05:24:06 435.350 FM
ITUPSAT 1 23 Jan 05:16:44 05:20:56 31° 250° (WSW) 05:25:07 437.325
XW-2B 23 Jan 05:32:05 05:34:49 19° 109° (ESE) 05:37:35 145.730 - 145.750
M-CUBED/EXP-1 PRIME 23 Jan 05:34:13 05:37:10 25° 281° (W) 05:40:20 437.505
MOZHAYETS 4 23 Jan 05:34:37 05:35:25 10° 245° (WSW) 05:36:14
CUBESAT XI-V 23 Jan 05:38:58 05:43:20 37° 252° (WSW) 05:47:41 437.345
ITAMSAT 1 23 Jan 05:39:19 05:40:03 10° 271° (W) 05:40:46 435.822/435.867
CUTE-I 23 Jan 05:40:53 05:45:24 28° 111° (ESE) 05:49:57 437.470
BEESAT 23 Jan 05:57:15 05:59:06 12° 244° (WSW) 06:00:56 436.000
LilacSat-2 23 Jan 06:01:27 06:05:09 55° 104° (ESE) 06:08:55 437.200
XW-2C 23 Jan 06:01:29 06:05:07 49° 105° (ESE) 06:08:50 145.795 - 145.815
CUBEBUG 2 23 Jan 06:11:04 06:12:04 11° 114° (ESE) 06:13:03 437.445
HO-68 23 Jan 06:23:35 06:30:14 42° 112° (ESE) 06:36:55 435.675
KAITUO 1B 23 Jan 06:31:08 06:34:51 87° 102° (ESE) 06:38:39 145.475/437.950
XW-2F 23 Jan 06:36:03 06:39:43 57° 280° (W) 06:43:29 145.980 - 146.000
BEESAT 3 23 Jan 06:37:12 06:40:37 28° 124° (SE) 06:43:59 437.485
NUDT-PHONESAT 23 Jan 06:38:54 06:42:34 78° 281° (W) 06:46:18 437.300
XW-2D 23 Jan 06:47:36 06:51:03 34° 278° (W) 06:54:33 145.860 - 145.880
KKS-1 23 Jan 06:47:43 06:52:02 47° 253° (WSW) 06:56:18 437.445
SEEDS 23 Jan 06:57:05 07:00:54 34° 107° (ESE) 07:04:44 437.485
STARS 23 Jan 06:58:25 07:02:52 83° 79° (E) 07:07:15 437.465
XW-2B 23 Jan 07:05:54 07:08:49 21° 276° (W) 07:11:46 145.730 - 145.750
nSIGHT-1 23 Jan 07:06:18 07:08:35 18° 52° (NE) 07:10:53 .
CUTE 1.7 + AOD 2 23 Jan 07:12:42 07:16:56 84° 282° (WNW) 07:21:14 437.475
RS-15 23 Jan 07:15:57 07:27:01 51° 289° (WNW) 07:38:33 29.354- 29.394
FO-29 23 Jan 07:18:29 07:21:20 12° 93° (E) 07:24:08 435.910
PCSat 23 Jan 07:20:11 07:25:23 44° 120° (ESE) 07:30:32 145.827
CUTE-I 23 Jan 07:20:34 07:25:16 31° 277° (W) 07:30:03 437.470
ISS 23 Jan 07:26:38 07:29:06 20° 52° (NE) 07:31:36 437.550
BEESAT 2 23 Jan 07:29:38 07:32:58 26° 125° (SE) 07:36:17 435.950
STRAND 1 23 Jan 07:41:37 07:46:05 29° 83° (E) 07:50:30 437.568
CUBEBUG 2 23 Jan 07:43:38 07:48:10 59° 280° (W) 07:52:34 437.445
UWE-3 23 Jan 07:45:08 07:49:33 74° 104° (ESE) 07:53:53 435.000/436.395/437.385
XW-2A 23 Jan 08:04:41 08:08:01 79° 103° (ESE) 08:11:24 145.665 - 145.685
ZACube-1 23 Jan 08:04:43 08:08:57 60° 104° (ESE) 08:13:09 437.345
AAUSAT CUBESAT 2 23 Jan 08:08:05 08:12:14 80° 282° (WNW) 08:16:29 437.432
AO-73 23 Jan 08:10:20 08:14:32 60° 104° (ESE) 08:18:43 145.935
HO-68 23 Jan 08:11:42 08:17:56 32° 277° (W) 08:24:15 435.675
BEESAT 3 23 Jan 08:15:10 08:17:53 18° 290° (WNW) 08:20:35 437.485
AO-85 23 Jan 08:23:55 08:26:08 14° 132° (SE) 08:28:16 145.980
SEEDS 23 Jan 08:34:08 08:36:37 15° 273° (W) 08:39:08 437.485
Oscar 11 23 Jan 08:41:12 08:45:31 87° 103° (ESE) 08:49:54 .
nSIGHT-1 23 Jan 08:41:37 08:44:33 31° 218° (SW) 08:47:32 .
FO-29 23 Jan 08:59:16 09:07:16 81° 77° (ENE) 09:14:51 435.910
ISS 23 Jan 09:02:26 09:05:26 30° 217° (SW) 09:08:26 437.550
PCSat 23 Jan 09:04:31 09:08:23 20° 285° (WNW) 09:12:13 145.827
BEESAT 2 23 Jan 09:07:37 09:10:28 19° 291° (WNW) 09:13:19 435.950
STRAND 1 23 Jan 09:20:49 09:25:05 27° 249° (WSW) 09:29:19 437.568
DELFI C3 23 Jan 10:01:55 10:05:51 57° 280° (W) 10:09:52 145.870
AO-85 23 Jan 10:02:51 10:06:49 44° 294° (WNW) 10:10:33 145.980
YUBILEINY 23 Jan 10:16:08 10:22:05 21° 99° (E) 10:28:03 435.215
TIGRISAT 23 Jan 10:16:29 10:20:33 40° 81° (E) 10:24:35 435.000
Max Valier Satellite 23 Jan 10:17:16 10:20:51 54° 280° (W) 10:24:30 145.860
EO-88 23 Jan 10:31:19 10:34:53 56° 280° (W) 10:38:32 145.990 - 145.960
UNISAT 6 23 Jan 10:32:08 10:36:27 72° 79° (E) 10:40:45 437.425
FO-29 23 Jan 10:46:03 10:51:16 20° 241° (WSW) 10:56:24 435.910
ESTCUBE 1 23 Jan 11:13:04 11:17:14 38° 107° (ESE) 11:21:27 437.505/2401.250
AIST 2D 23 Jan 11:18:23 11:20:54 18° 85° (E) 11:23:25 435.315
PRISM 23 Jan 11:42:59 11:47:12 85° 257° (WSW) 11:51:20 437.425
LO-87 23 Jan 11:44:15 11:47:49 59° 280° (W) 11:51:25 145.935 - 145.965
NO-84 23 Jan 11:52:45 11:56:17 24° 142° (SE) 11:59:43 435.350 FM
TIGRISAT 23 Jan 11:54:37 11:56:51 14° 248° (WSW) 11:59:03 435.000
POLYITAN 1 23 Jan 12:06:55 12:10:06 20° 85° (E) 12:13:16 437.675
YUBILEINY 23 Jan 12:09:17 12:17:56 68° 262° (W) 12:26:43 435.215
NANOSAT C BR1 23 Jan 12:20:16 12:23:50 26° 83° (E) 12:27:20 145.865
SPROUT 23 Jan 12:21:09 12:25:19 49° 106° (ESE) 12:29:30 437.525
QB50P2 23 Jan 12:36:00 12:40:11 55° 80° (E) 12:44:19 145.880/145.840
VELOX 1 23 Jan 12:39:51 12:44:05 43° 107° (ESE) 12:48:21 145.980
AIST 2D 23 Jan 12:51:14 12:53:56 20° 252° (WSW) 12:56:36 435.315
ESTCUBE 1 23 Jan 12:51:24 12:54:07 16° 274° (W) 12:56:52 437.505/2401.250
DX 1 23 Jan 12:53:40 12:54:06 10° 116° (ESE) 12:54:33 434.975-435.025
O/OREOS (USA 219) 23 Jan 12:56:44 13:01:15 63° 249° (WSW) 13:05:52 437.305
DUCHIFAT 1 23 Jan 13:02:12 13:06:27 75° 77° (ENE) 13:10:37 145.980
EO-79 23 Jan 13:06:07 13:10:21 70° 256° (WSW) 13:14:32 145.935-145.965
Oscar 19 23 Jan 13:23:33 13:26:49 17° 86° (E) 13:30:05 437.125/150
Gurwin Techsat 1B 23 Jan 13:26:48 13:29:14 13° 88° (E) 13:31:38 435.225
NO-84 23 Jan 13:29:45 13:33:41 37° 305° (NW) 13:37:23 435.350 FM
POLYITAN 1 23 Jan 13:42:16 13:45:47 26° 251° (WSW) 13:49:16 437.675
AO-91 23 Jan 13:53:05 13:56:48 33° 84° (E) 14:00:10 145.960
BUGSAT 1 23 Jan 13:55:29 13:59:31 63° 79° (ENE) 14:03:30 437.445
NANOSAT C BR1 23 Jan 13:56:11 13:59:19 20° 250° (WSW) 14:02:26 145.865
SPROUT 23 Jan 14:00:12 14:01:24 11° 272° (W) 14:02:35 437.525
50 SAT 23 Jan 14:02:03 14:05:07 58° 104° (ESE) 14:08:15 437.505
FALCONSAT 3 23 Jan 14:04:24 14:06:19 14° 33° (NNE) 14:08:13 435.103
UKube-1 23 Jan 14:09:05 14:13:14 46° 107° (ESE) 14:17:28 .
QB50P2 23 Jan 14:14:47 14:15:25 10° 246° (WSW) 14:16:02 145.880/145.840
VELOX 1 23 Jan 14:18:23 14:20:40 14° 273° (W) 14:22:58 145.980
DX 1 23 Jan 14:25:19 14:29:39 62° 282° (WNW) 14:34:05 434.975-435.025
AO-7 23 Jan 14:39:03 14:40:23 10° 89° (E) 14:41:44 .
ITUPSAT 1 23 Jan 14:42:44 14:45:49 17° 113° (ESE) 14:48:55 437.325
MOZHAYETS 4 23 Jan 14:51:55 14:56:07 37° 108° (ESE) 15:00:21
Oscar 19 23 Jan 15:01:19 15:06:18 47° 252° (WSW) 15:11:16 437.125/150
CUBESAT XI-V 23 Jan 15:03:47 15:05:09 11° 115° (ESE) 15:06:30 437.345
Gurwin Techsat 1B 23 Jan 15:04:12 15:09:31 62° 254° (WSW) 15:14:45 435.225
nSIGHT-1 23 Jan 15:11:13 15:14:16 35° 141° (SE) 15:17:16 .
BEESAT 23 Jan 15:19:13 15:23:44 43° 108° (ESE) 15:28:18 436.000
AO-91 23 Jan 15:30:54 15:32:49 13° 245° (WSW) 15:34:39 145.960
ISS 23 Jan 15:33:13 15:36:24 40° 140° (SE) 15:39:32 437.550
FALCONSAT 3 23 Jan 15:41:19 15:44:56 56° 20° (NNE) 15:48:36 435.103
UKube-1 23 Jan 15:47:48 15:49:27 12° 273° (W) 15:51:06 .
ITAMSAT 1 23 Jan 16:12:23 16:17:13 36° 82° (E) 16:21:58 435.822/435.867
ITUPSAT 1 23 Jan 16:18:42 16:23:14 42° 280° (W) 16:27:50 437.325
MOZHAYETS 4 23 Jan 16:30:25 16:33:20 17° 274° (W) 16:36:17
